Hourly Data Report for July 16, 2016

OTTAWA INTL A
ONTARIO

45°19'00.000" N
75°40'00.000" W
114.90 m
6106001
71628
YOW

Download Data

Hourly Data (July 2016)
Hourly Data Report for July 16, 2016
TIME
LST
Temp Definition
°C
Dew Point Definition
°C
Rel Hum Definition
%
Precip. Amount Definition
mm

Wind Dir Definition
10's deg

Wind Spd Definition
km/h
Visibility Definition
km
Stn Press Definition
kPa
Hmdx Definition


Wind Chill Definition


Weather Definition


00:00 16.0 14.0 88   31 13 24.1 99.97     Rain
01:00 16.1 14.3 89   25 9 24.1 100.00     Cloudy
02:00 15.7 14.6 93   27 11 24.1 100.04     LegendNANA
03:00 15.8 14.4 91   29 14 24.1 100.06     LegendNANA
04:00 14.7 13.6 93   30 10 24.1 100.09     Mainly Clear
05:00 14.1 13.2 94   25 11 24.1 100.17     LegendNANA
06:00 15.7 14.3 91   30 9 24.1 100.26     LegendNANA
07:00 17.5 13.9 79   33 8 24.1 100.33     Mainly Clear
08:00 18.9 13.2 69   4 7 24.1 100.35     LegendNANA
09:00 19.5 13.7 69   32 3 24.1 100.38     LegendNANA
10:00 21.4 14.2 63   11 6 24.1 100.43 25   Mostly Cloudy
11:00 22.0 13.5 58   16 8 24.1 100.44 25   LegendNANA
12:00 21.7 13.7 60   17 8 24.1 100.47 25   LegendNANA
13:00 21.8 12.2 54   21 5 24.1 100.46     Cloudy
14:00 21.7 14.0 61   23 7 24.1 100.46 25   LegendNANA
15:00 22.8 14.0 57   24 4 24.1 100.45 26   LegendNANA
16:00 21.1 15.1 68   18 7 24.1 100.44 25   Cloudy
17:00 21.5 14.5 64   29 5 24.1 100.42 25   LegendNANA
18:00 21.0 15.4 70   21 5 24.1 100.43 25   LegendNANA
19:00 20.2 15.3 73   23 7 24.1 100.42     Mostly Cloudy
20:00 19.0 15.1 78   22 5 24.1 100.45     LegendNANA
21:00 18.4 15.7 84   18 8 24.1 100.53     LegendNANA
22:00 18.4 16.1 86   21 7 24.1 100.57     Mostly Cloudy
23:00 18.1 16.1 88   17 5 24.1 100.57     LegendNANA

Notes on Data Quality.

Legend

  • E = Estimated
  • M = Missing
  • NA = Not Available*
  • [empty] = Indicates an unobserved value
Date modified: